Wind_Speed
8 8 9 9 9 9 10 10 12 12 12 12 11 11 11 12 13 12 12 13 13 12 13 13 13 13 12 12 11 11 10 10 10 9 9 8 8 7 7 7 7 7 7
7 7 8 9 10 10 10 10 11 12 12 11 11 11 11 13 13 12 12 13 13 12 12 13 13 13 13 12 12 12 11 11 10 9 9 8 8 8 8 7 7 7 6
7 7 8 9 10 10 9 10 11 12 12 11 11 12 12 13 14 14 13 13 12 12 12 12 12 12 13 12 12 12 12 12 11 10 10 10 10 9 8 7 6 6 6
8 8 8 9 10 9 9 10 10 11 11 12 12 12 12 13 14 14 13 13 12 12 12 12 12 12 12 12 12 12 11 11 11 10 10 10 10 9 7 6 6 5 6
9 8 8 9 10 10 10 10 10 11 11 11 12 12 12 13 14 14 13 13 13 12 12 12 12 12 12 12 12 11 11 11 11 11 11 10 9 8 7 7 6 6 6
9 9 8 8 10 10 10 10 10 10 11 10 10 11 11 12 13 14 13 13 13 12 12 12 11 11 11 11 12 11 11 11 11 11 10 10 9 8 8 7 7 6 6
9 9 8 8 9 9 10 10 10 10 10 10 10 11 11 11 12 12 13 12 12 12 13 12 11 11 10 11 11 11 10 10 10 10 9 9 8 8 7 7 7 6 5
9 8 8 8 8 9 9 9 9 9 9 9 9 10 11 11 11 11 12 12 11 11 12 11 11 11 11 11 10 10 10 10 9 9 9 8 7 7 6 6 6 5 5
9 8 8 8 8 9 9 9 8 8 9 9 10 10 10 10 10 10 11 11 11 11 11 11 10 10 11 11 10 9 8 8 8 8 7 7 6 6 5 5 5 4 4
10 9 8 8 8 8 9 9 9 8 9 9 9 9 9 10 10 10 10 10 10 10 9 10 9 10 10 10 9 8 7 7 6 6 6 5 4 4 4 4 3 3 3
11 10 9 9 9 9 9 10 10 9 8 8 8 8 9 9 10 9 9 9 9 9 9 9 9 9 8 8 7 7 6 6 5 5 4 4 3 3 3 3 2 2 2
11 11 11 11 11 10 10 10 9 9 9 9 8 8 8 8 8 8 8 8 8 8 8 8 8 7 7 6 6 5 5 5 4 4 4 3 3 2 2 2 2 1 2
12 12 12 12 12 11 10 10 9 9 9 8 8 8 7 7 7 7 7 7 7 8 8 7 7 6 6 5 5 4 4 4 3 3 2 2 2 2 2 2 2 2 2
12 12 12 12 12 11 10 9 9 9 8 8 8 7 7 6 6 7 7 6 6 6 6 6 5 5 5 4 4 3 3 3 3 2 2 2 3 3 3 3 3 3 3
12 11 11 11 11 11 11 10 9 8 8 7 7 6 6 6 6 6 7 6 6 6 6 5 4 4 4 4 4 3 3 3 3 2 3 3 4 4 4 4 4 4 5
11 11 11 11 10 10 10 10 9 9 8 7 6 5 5 4 4 5 5 5 5 4 4 4 3 3 3 3 3 4 4 4 4 4 4 5 5 5 5 6 6 6 6
11 11 11 10 10 10 10 10 9 9 8 7 6 5 4 4 4 3 3 3 4 3 3 3 3 2 2 3 3 4 5 6 6 6 6 6 7 7 7 7 8 8 8
11 11 11 10 10 10 10 10 9 9 8 7 6 6 5 4 3 2 3 3 2 2 2 2 2 2 2 2 3 4 4 6 7 7 7 8 8 9 8 8 9 9 10
11 11 11 10 10 10 9 9 9 9 8 8 8 7 6 5 3 3 3 3 2 1 1 1 1 2 2 3 3 4 5 5 6 7 8 8 9 9 9 10 10 10 11
10 10 10 10 10 10 9 9 9 9 8 8 8 8 7 6 5 4 3 3 2 1 1 0 1 1 2 3 4 4 5 6 6 7 8 8 9 10 10 11 11 12 12
10 10 10 10 9 9 9 9 9 9 8 8 8 8 8 7 6 5 4 3 2 1 1 0 1 1 2 3 3 4 5 6 7 7 8 9 9 10 11 12 13 13 13
9 9 9 9 9 9 9 9 9 8 8 8 8 8 8 7 6 5 4 4 3 3 1 1 1 2 2 3 4 5 6 7 8 8 8 9 10 11 12 13 14 15 15
8 8 8 8 8 8 8 8 8 8 8 8 7 7 7 7 7 5 4 3 2 2 2 2 2 3 3 4 5 6 7 8 9 9 10 10 11 12 13 14 15 16 17
7 7 8 7 7 8 8 8 7 8 8 7 6 6 7 7 6 6 4 3 3 3 3 3 4 4 5 5 6 7 8 8 9 10 10 11 12 12 13 14 15 16 16
7 7 7 7 7 7 7 7 7 7 7 7 7 6 6 6 6 6 5 4 3 3 3 4 5 6 6 7 7 8 9 10 10 11 11 12 12 13 14 14 14 14 15
6 6 6 6 7 7 7 7 6 6 6 7 7 7 6 5 5 6 5 5 4 4 4 5 6 7 7 8 8 9 9 10 11 11 12 12 12 13 14 14 14 15 15
Wind_Direction
80 81 86 90 92 94 100 111 110 109 108 111 113 114 115 118 125 126 125 125 125 124 122 123 125 126 125 124 124 124 125 124 123 121 118 121 122 125 126 128 131 132 129
82 85 88 89 95 100 103 109 113 110 110 109 112 115 117 121 123 123 124 123 124 125 124 122 124 123 124 125 124 124 123 122 120 118 116 118 121 124 122 125 127 127 125
82 87 91 90 93 98 102 108 112 111 112 112 113 117 120 120 121 119 120 123 123 124 125 125 125 124 122 121 123 124 122 119 118 116 118 118 119 120 120 121 121 117 120
77 83 89 90 91 94 100 107 110 115 114 115 117 118 120 123 122 123 124 123 125 126 126 127 128 124 123 120 120 122 121 119 119 119 119 118 117 117 117 117 117 117 123
75 78 85 88 90 94 97 98 105 113 112 113 114 117 117 120 122 124 126 126 125 128 131 131 133 126 125 123 122 121 121 119 116 117 115 114 116 113 110 112 110 111 118
73 75 79 85 92 96 97 98 101 108 111 110 110 112 115 120 124 122 126 128 126 127 129 128 125 124 124 125 124 120 119 118 117 115 111 109 109 109 108 107 108 109 111
72 72 75 81 92 97 99 101 104 105 111 111 109 109 112 118 122 124 124 126 126 126 126 120 118 119 122 124 123 120 118 116 117 115 111 110 108 107 108 105 103 100 102
69 72 73 79 87 94 99 99 103 104 109 113 109 108 112 115 117 122 121 123 124 125 126 123 121 120 124 125 121 116 115 116 119 117 115 114 112 108 107 105 104 103 104
67 69 69 78 86 90 96 98 100 102 105 110 110 109 110 112 118 119 119 119 120 121 123 121 120 121 125 123 120 118 118 118 121 125 123 119 117 113 110 110 110 113 116
69 70 70 76 84 89 93 98 101 104 105 105 111 111 114 113 117 118 117 121 125 123 124 124 124 122 125 127 124 123 123 124 122 126 128 126 124 123 120 116 116 119 125
69 72 74 76 82 84 90 96 97 99 103 105 108 111 115 115 117 119 119 122 126 129 128 129 127 124 124 127 127 125 128 130 128 130 138 141 138 138 142 135 133 144 153
70 73 75 78 81 84 90 95 96 98 99 101 105 109 114 116 119 121 121 124 129 134 134 133 132 131 130 131 131 132 133 135 136 141 147 153 157 159 166 170 176 188 195
71 72 75 78 79 80 83 87 90 91 96 100 105 107 113 120 124 125 128 132 134 138 137 135 138 141 140 142 146 147 148 150 152 157 163 169 178 189 203 220 225 231 228
68 71 71 73 73 75 79 83 85 88 91 94 98 99 102 115 125 128 129 133 140 146 146 143 142 144 151 154 159 161 158 167 177 190 203 210 218 229 241 245 255 264 261
67 67 69 69 70 71 74 78 79 82 90 93 93 93 94 106 117 121 125 130 133 143 148 150 145 147 158 167 176 183 194 201 207 225 236 239 243 252 257 260 265 272 275
64 65 65 66 68 68 68 69 70 71 80 85 86 83 88 99 111 118 124 133 136 141 151 153 155 161 177 187 196 209 222 229 236 244 251 252 253 257 261 265 271 270 274
61 63 61 60 61 66 69 67 67 67 71 80 83 80 80 90 105 120 123 131 132 135 150 160 169 180 192 208 222 233 242 248 252 256 259 258 258 261 262 266 269 271 272
59 61 60 59 59 62 65 66 64 62 66 72 69 66 70 78 87 108 127 137 131 122 136 161 182 199 218 233 246 251 257 258 260 264 265 265 266 267 267 268 272 273 274
56 57 58 57 58 60 60 59 57 57 61 64 62 65 68 72 80 107 128 143 144 129 145 162 209 237 238 244 252 260 267 269 268 269 271 272 271 268 268 271 275 277 277
53 55 55 55 57 59 60 59 55 54 58 60 60 60 63 68 81 99 108 126 134 124 135 189 258 279 263 262 269 274 274 273 272 272 272 272 275 273 273 275 279 280 278
50 52 54 54 54 56 58 55 53 52 54 56 58 58 58 63 76 80 88 88 86 90 85 17 314 316 301 286 288 286 284 282 281 280 278 278 279 280 277 277 280 279 278
43 48 51 52 51 52 53 53 52 50 52 52 54 56 55 59 67 71 74 74 71 75 76 37 355 315 300 299 297 296 295 292 288 287 286 283 283 283 283 281 281 279 281
38 40 45 47 47 49 50 50 47 45 50 55 54 53 53 56 58 64 73 71 64 66 56 19 357 336 318 311 305 302 299 297 289 288 291 289 286 283 282 282 285 283 281
36 35 39 41 38 40 43 44 41 42 48 49 50 51 51 51 48 49 55 63 64 50 30 11 356 346 336 328 319 311 305 300 295 293 293 294 292 289 287 287 287 287 284
30 31 36 38 36 36 37 37 40 45 44 41 43 49 48 45 41 38 39 39 37 25 12 360 351 345 336 328 320 314 308 302 297 295 294 295 296 293 292 293 294 293 289
21 23 31 35 32 31 30 30 35 39 39 37 36 36 35 33 25 24 24 16 10 2 353 346 341 339 335 329 324 319 314 307 300 295 294 294 297 297 296 294 294 297 294
Height
5873 5872 5871 5870 5870 5869 5868 5868 5868 5868 5868 5868 5868 5868 5869 5869 5870 5871 5872 5873 5874 5875 5876 5877 5878 5878 5879 5880 5881 5882 5883 5884 5885 5885 5886 5886 5886 5887 5887 5888 5888 5889 5889
5875 5873 5872 5872 5871 5870 5870 5869 5869 5869 5869 5869 5870 5870 5870 5870 5871 5873 5873 5875 5876 5877 5878 5878 5879 5880 5881 5882 5883 5883 5884 5885 5886 5887 5887 5887 5887 5888 5889 5889 5890 5890 5891
5876 5875 5874 5873 5873 5872 5871 5871 5871 5871 5871 5871 5871 5871 5871 5872 5873 5874 5875 5876 5877 5878 5879 5880 5881 5882 5883 5883 5884 5885 5886 5887 5887 5888 5888 5888 5888 5889 5890 5891 5891 5892 5892
5877 5876 5876 5875 5874 5874 5873 5872 5872 5873 5873 5873 5873 5873 5873 5874 5874 5875 5876 5877 5879 5880 5880 5881 5883 5883 5884 5885 5886 5887 5888 5888 5889 5890 5890 5890 5890 5891 5892 5892 5893 5893 5893
5879 5878 5877 5876 5876 5876 5875 5875 5874 5874 5874 5874 5874 5875 5875 5875 5876 5876 5878 5879 5880 5881 5882 5883 5884 5885 5886 5887 5888 5888 5889 5890 5891 5891 5891 5892 5892 5893 5893 5894 5894 5894 5895
5881 5880 5879 5878 5878 5877 5877 5876 5876 5876 5876 5876 5876 5876 5876 5877 5877 5878 5879 5880 5881 5882 5883 5884 5885 5886 5887 5888 5889 5890 5891 5892 5892 5893 5893 5893 5894 5894 5895 5896 5896 5896 5896
5882 5882 5881 5880 5880 5879 5879 5878 5878 5878 5878 5878 5878 5878 5878 5878 5879 5880 5881 5881 5882 5883 5885 5886 5887 5888 5889 5890 5891 5892 5893 5893 5894 5894 5895 5895 5896 5896 5897 5897 5897 5898 5898
5884 5883 5882 5882 5881 5881 5880 5880 5880 5879 5879 5879 5879 5879 5879 5880 5881 5881 5882 5883 5884 5885 5886 5888 5889 5889 5891 5892 5892 5893 5894 5895 5895 5896 5896 5897 5898 5898 5898 5898 5898 5899 5899
5885 5885 5884 5883 5883 5882 5882 5882 5882 5881 5881 5881 5881 5881 5881 5882 5883 5883 5884 5885 5886 5887 5888 5889 5890 5891 5892 5893 5894 5895 5896 5896 5897 5897 5898 5898 5899 5899 5899 5899 5900 5900 5900
5887 5886 5885 5885 5884 5884 5884 5883 5883 5883 5883 5883 5883 5883 5883 5884 5884 5885 5885 5886 5887 5888 5890 5891 5892 5893 5894 5895 5896 5897 5897 5897 5898 5898 5899 5899 5900 5900 5900 5900 5900 5900 5900
5889 5888 5887 5887 5886 5886 5885 5885 5885 5885 5884 5884 5884 5884 5885 5885 5885 5886 5887 5888 5889 5890 5891 5892 5893 5894 5895 5896 5897 5898 5898 5899 5899 5899 5899 5900 5900 5901 5901 5900 5900 5901 5901
5892 5890 5889 5889 5888 5887 5887 5887 5886 5886 5886 5886 5886 5886 5886 5886 5887 5887 5888 5889 5890 5891 5892 5893 5894 5895 5896 5897 5897 5898 5899 5899 5899 5900 5900 5900 5901 5901 5901 5901 5901 5900 5901
5894 5893 5892 5891 5890 5889 5889 5888 5888 5888 5888 5887 5887 5887 5887 5888 5888 5889 5889 5890 5891 5892 5893 5894 5895 5896 5896 5897 5898 5898 5899 5899 5900 5900 5900 5901 5901 5901 5901 5901 5900 5900 5900
5897 5895 5894 5893 5892 5891 5891 5890 5890 5889 5889 5889 5889 5889 5889 5889 5889 5890 5891 5891 5892 5893 5893 5894 5895 5896 5897 5897 5898 5899 5899 5900 5900 5900 5901 5901 5901 5901 5900 5900 5900 5900 5900
5899 5898 5896 5895 5894 5893 5893 5892 5892 5891 5891 5890 5890 5890 5890 5890 5891 5891 5892 5892 5893 5893 5894 5895 5896 5896 5897 5897 5898 5899 5899 5899 5899 5900 5900 5900 5900 5900 5900 5900 5899 5899 5899
5901 5900 5898 5897 5896 5895 5894 5894 5893 5893 5892 5892 5892 5891 5891 5891 5891 5892 5892 5893 5893 5894 5895 5895 5896 5896 5897 5897 5898 5898 5898 5899 5899 5899 5899 5899 5899 5899 5899 5899 5898 5898 5898
5903 5901 5900 5899 5898 5897 5896 5895 5895 5894 5893 5893 5893 5892 5892 5892 5892 5892 5893 5893 5894 5894 5895 5895 5896 5896 5897 5897 5897 5897 5898 5898 5898 5898 5898 5898 5898 5898 5898 5897 5897 5897 5896
5905 5904 5902 5901 5900 5899 5898 5897 5896 5895 5895 5894 5893 5893 5892 5892 5893 5893 5893 5894 5894 5894 5895 5896 5896 5896 5896 5897 5897 5897 5897 5897 5897 5897 5897 5896 5896 5896 5896 5895 5895 5895 5894
5907 5906 5905 5903 5902 5900 5900 5899 5898 5897 5896 5895 5894 5894 5893 5893 5893 5893 5894 5894 5894 5895 5895 5895 5896 5896 5896 5896 5896 5896 5896 5896 5895 5895 5895 5894 5894 5894 5894 5893 5893 5893 5892
5909 5908 5907 5905 5904 5902 5901 5900 5900 5899 5898 5897 5896 5895 5894 5894 5894 5894 5894 5894 5895 5895 5895 5895 5896 5896 5895 5895 5895 5895 5894 5894 5894 5893 5893 5893 5892 5892 5892 5891 5891 5890 5890
5911 5910 5909 5907 5906 5904 5903 5902 5901 5900 5899 5898 5898 5897 5896 5895 5895 5895 5895 5895 5895 5895 5895 5895 5895 5895 5895 5895 5894 5894 5893 5893 5892 5892 5891 5891 5890 5890 5889 5889 5888 5887 5887
5913 5912 5910 5909 5907 5906 5905 5904 5903 5902 5901 5900 5899 5898 5897 5896 5896 5895 5895 5896 5895 5895 5895 5895 5895 5895 5894 5894 5893 5893 5892 5892 5890 5890 5889 5888 5888 5887 5887 5886 5885 5884 5883
5914 5913 5912 5910 5909 5908 5906 5905 5904 5903 5902 5901 5900 5899 5898 5897 5897 5896 5896 5896 5895 5895 5895 5894 5894 5894 5893 5892 5892 5891 5891 5890 5888 5888 5887 5886 5885 5884 5884 5883 5882 5881 5880
5916 5914 5913 5912 5910 5909 5908 5907 5905 5904 5903 5902 5901 5900 5899 5899 5898 5897 5896 5896 5895 5895 5895 5894 5893 5892 5892 5891 5890 5889 5889 5887 5886 5886 5885 5884 5883 5882 5880 5879 5878 5877 5876
5917 5915 5914 5912 5911 5910 5909 5908 5907 5906 5905 5904 5902 5901 5900 5899 5899 5898 5897 5896 5896 5895 5894 5894 5893 5892 5891 5890 5889 5887 5886 5885 5884 5883 5882 5881 5880 5879 5877 5876 5875 5874 5872
5917 5916 5915 5913 5912 5911 5910 5909 5908 5906 5905 5904 5903 5902 5901 5900 5899 5898 5897 5896 5896 5895 5894 5893 5892 5891 5889 5888 5887 5886 5884 5883 5882 5881 5879 5878 5877 5876 5874 5873 5872 5871 5869